Weather History for KFGN - October, 2013

Change the Weather History Date:

Tuesday, October 1, 2013

  Actual Average Record
Temperature  
Mean Temperature 56 °F -  
Max Temperature 62 °F 51 °F 66 °F (2005)
Min Temperature 51 °F 39 °F 30 °F (1998)
Degree Days  
Heating Degree Days 8    
Growing Degree Days 6 (Base 50)    
Moisture  
Dew Point 45 °F    
Average Humidity 66    
Maximum Humidity 100    
Minimum Humidity 42    
Precipitation  
Precipitation 0.02 in - - ()
Sea Level Pressure  
Sea Level Pressure 29.58 in    
Wind  
Wind Speed 14 mph (WSW)    
Max Wind Speed 30 mph    
Max Gust Speed 43 mph    
Visibility 10 miles    
Events Rain    
Averages and records for this station are not official NWS values.
T = Trace of Precipitation, MM = Missing Value Source: NWS Daily Summary

Daily Weather History Graph

Daily Weather History Graph

Search for Another Location

Airport or City:

Trip Planner

Search our weather history database for the weather conditions in past years. The results will help you decide how hot, cold, wet, or windy it might be!

Date:

Astronomy

Oct. 01, 2013 Rise Set
Actual Time 7:19 AM CDT 6:57 PM CDT
Civil Twilight 6:48 AM CDT 7:29 PM CDT
Nautical Twilight 6:10 AM CDT 8:06 PM CDT
Astronomical Twilight 5:33 AM CDT 8:43 PM CDT
Moon 3:39 AM CDT (10/1) 5:14 PM CDT (10/1)
Length of Visible Light 12h 41m
Length of Day
11h 37m
Waning Crescent, 12% of the Moon is Illuminated
Oct 1
Waning Crescent
Oct 4
New
Oct 11
First Quarter
Oct 18
Full
Oct 26
Last Quarter

Hourly Weather History & Observations

Time (CDT) Temp. Dew Point Humidity Pressure Visibility Wind Dir Wind Speed Gust Speed Precip Events Conditions
12:13 AM 60.8 °F 51.8 °F 72% 29.44 in 10.0 mi SE 4.6 mph - N/A   Mostly Cloudy
12:33 AM 60.8 °F 55.4 °F 82% 29.43 in 10.0 mi SSE 8.1 mph - N/A   Mostly Cloudy
12:53 AM 60.8 °F 55.4 °F 82% 29.42 in 10.0 mi SSE 10.4 mph - N/A   Mostly Cloudy
1:13 AM 60.8 °F 55.4 °F 82% 29.42 in 10.0 mi SSE 11.5 mph - N/A   Overcast
1:33 AM 60.8 °F 55.4 °F 82% 29.41 in 10.0 mi South 11.5 mph - N/A   Mostly Cloudy
1:53 AM 60.8 °F 55.4 °F 82% 29.41 in 10.0 mi South 12.7 mph - N/A   Overcast
2:13 AM 60.8 °F 55.4 °F 82% 29.43 in 10.0 mi SSW 12.7 mph 17.3 mph N/A   Mostly Cloudy
2:33 AM 60.8 °F 51.8 °F 72% 29.45 in 10.0 mi WSW 18.4 mph - N/A   Overcast
2:53 AM 57.2 °F 51.8 °F 82% 29.44 in 7.0 mi West 9.2 mph - 0.01 in Rain Light Rain
3:13 AM 57.2 °F 51.8 °F 82% 29.45 in 10.0 mi West 11.5 mph - 0.01 in Rain Light Rain
3:33 AM 55.4 °F 51.8 °F 88% 29.45 in 10.0 mi West 9.2 mph - 0.01 in   Mostly Cloudy
3:53 AM 55.4 °F 51.8 °F 88% 29.45 in 10.0 mi West 11.5 mph - 0.01 in   Scattered Clouds
4:13 AM 55.4 °F 51.8 °F 88% 29.45 in 10.0 mi West 9.2 mph - N/A   Scattered Clouds
4:33 AM 53.6 °F 51.8 °F 94% 29.45 in 10.0 mi WSW 9.2 mph - N/A   Scattered Clouds
4:53 AM 53.6 °F 51.8 °F 94% 29.46 in 10.0 mi WSW 9.2 mph - N/A   Clear
5:13 AM 53.6 °F 51.8 °F 94% 29.47 in 10.0 mi WSW 9.2 mph - N/A   Clear
5:33 AM 53.6 °F 51.8 °F 94% 29.47 in 10.0 mi SW 12.7 mph - N/A   Scattered Clouds
5:54 AM 51.8 °F 51.8 °F 100% 29.48 in 10.0 mi SW 11.5 mph - N/A   Clear
6:13 AM 51.8 °F 50.0 °F 94% 29.48 in 10.0 mi SW 12.7 mph - N/A   Clear
6:33 AM 51.8 °F 50.0 °F 94% 29.48 in 10.0 mi SW 15.0 mph - N/A   Clear
6:54 AM 51.8 °F 48.2 °F 88% 29.49 in 10.0 mi SW 15.0 mph - N/A   Clear
7:13 AM 51.8 °F 48.2 °F 88% 29.49 in 10.0 mi SW 12.7 mph - N/A   Clear
7:33 AM 51.8 °F 48.2 °F 88% 29.50 in 10.0 mi SW 15.0 mph - N/A   Clear
7:54 AM 51.8 °F 46.4 °F 82% 29.50 in 10.0 mi SW 16.1 mph - N/A   Clear
8:13 AM 51.8 °F 46.4 °F 82% 29.51 in 10.0 mi SW 17.3 mph - N/A   Clear
8:33 AM 51.8 °F 46.4 °F 82% 29.52 in 10.0 mi WSW 16.1 mph - N/A   Clear
8:54 AM 51.8 °F 44.6 °F 76% 29.52 in 10.0 mi SW 17.3 mph - N/A   Clear
9:13 AM 51.8 °F 44.6 °F 76% 29.53 in 10.0 mi WSW 17.3 mph 21.9 mph N/A   Clear
9:33 AM 53.6 °F 44.6 °F 72% 29.54 in 10.0 mi WSW 17.3 mph 21.9 mph N/A   Clear
9:54 AM 53.6 °F 42.8 °F 67% 29.55 in 10.0 mi WSW 16.1 mph - N/A   Clear
10:13 AM 53.6 °F 42.8 °F 67% 29.55 in 10.0 mi WSW 16.1 mph 21.9 mph N/A   Clear
10:33 AM 55.4 °F 42.8 °F 63% 29.55 in 10.0 mi WSW 16.1 mph 23.0 mph N/A   Clear
10:54 AM 55.4 °F 41.0 °F 58% 29.55 in 10.0 mi WSW 27.6 mph 35.7 mph N/A   Clear
11:13 AM 57.2 °F 39.2 °F 51% 29.55 in 10.0 mi WSW 21.9 mph 32.2 mph N/A   Clear
11:33 AM 57.2 °F 39.2 °F 51% 29.56 in 10.0 mi WSW 19.6 mph 24.2 mph N/A   Clear
11:54 AM 57.2 °F 39.2 °F 51% 29.55 in 10.0 mi West 24.2 mph 32.2 mph N/A   Clear
12:13 PM 59.0 °F 41.0 °F 51% 29.56 in 10.0 mi WSW 26.5 mph 33.4 mph N/A   Unknown
12:33 PM 59.0 °F 41.0 °F 51% 29.56 in 10.0 mi WSW 27.6 mph 35.7 mph N/A   Clear
12:53 PM 59.0 °F 41.0 °F 51% 29.55 in 10.0 mi WSW 26.5 mph 40.3 mph N/A   Clear
1:13 PM 60.8 °F 41.0 °F 48% 29.56 in 10.0 mi SW 28.8 mph 42.6 mph N/A   Clear
1:33 PM 60.8 °F 39.2 °F 45% 29.57 in 10.0 mi West 26.5 mph 42.6 mph N/A   Scattered Clouds
1:53 PM 60.8 °F 39.2 °F 45% 29.57 in 10.0 mi West 28.8 mph 39.1 mph N/A   Scattered Clouds
2:13 PM 60.8 °F 41.0 °F 48% 29.59 in 10.0 mi West 29.9 mph 40.3 mph N/A   Scattered Clouds
2:33 PM 60.8 °F 39.2 °F 45% 29.58 in 10.0 mi WSW 28.8 mph 36.8 mph N/A   Scattered Clouds
2:53 PM 60.8 °F 39.2 °F 45% 29.59 in 10.0 mi West 27.6 mph 41.4 mph N/A   Clear
3:13 PM 62.6 °F 39.2 °F 42% 29.59 in 10.0 mi WSW 21.9 mph 40.3 mph N/A   Scattered Clouds
3:33 PM 62.6 °F 39.2 °F 42% 29.60 in 10.0 mi West 27.6 mph 38.0 mph N/A   Overcast
3:53 PM 62.6 °F 39.2 °F 42% 29.61 in 10.0 mi West 27.6 mph 38.0 mph N/A   Overcast
4:13 PM 60.8 °F 41.0 °F 48% 29.62 in 10.0 mi West 20.7 mph 33.4 mph N/A   Mostly Cloudy
4:33 PM 62.6 °F 39.2 °F 42% 29.64 in 10.0 mi West 21.9 mph 33.4 mph N/A   Mostly Cloudy
4:53 PM 60.8 °F 39.2 °F 45% 29.65 in 10.0 mi West 26.5 mph 33.4 mph N/A   Overcast
5:13 PM 60.8 °F 41.0 °F 48% 29.66 in 10.0 mi West 18.4 mph 29.9 mph N/A   Overcast
5:33 PM 60.8 °F 39.2 °F 45% 29.67 in 10.0 mi West 19.6 mph 25.3 mph N/A   Overcast
5:53 PM 60.8 °F 39.2 °F 45% 29.68 in 10.0 mi West 17.3 mph 23.0 mph N/A   Overcast
6:13 PM 60.8 °F 41.0 °F 48% 29.69 in 10.0 mi West 13.8 mph 18.4 mph N/A   Mostly Cloudy
6:33 PM 60.8 °F 42.8 °F 52% 29.70 in 10.0 mi West 10.4 mph - N/A   Scattered Clouds
6:53 PM 59.0 °F 41.0 °F 51% 29.70 in 10.0 mi West 9.2 mph - N/A   Clear
7:13 PM 57.2 °F 41.0 °F 55% 29.71 in 10.0 mi West 11.5 mph - N/A   Clear
7:33 PM 57.2 °F 42.8 °F 59% 29.72 in 10.0 mi West 10.4 mph - N/A   Clear
7:53 PM 57.2 °F 42.8 °F 59% 29.73 in 10.0 mi West 10.4 mph - N/A   Clear
8:13 PM 57.2 °F 42.8 °F 59% 29.74 in 10.0 mi West 10.4 mph - N/A   Clear
8:33 PM 55.4 °F 42.8 °F 63% 29.75 in 10.0 mi West 8.1 mph - N/A   Clear
8:53 PM 55.4 °F 42.8 °F 63% 29.75 in 10.0 mi WSW 9.2 mph - N/A   Clear
9:13 PM 55.4 °F 42.8 °F 63% 29.75 in 10.0 mi WSW 10.4 mph - N/A   Clear
9:33 PM 55.4 °F 42.8 °F 63% 29.76 in 10.0 mi WSW 11.5 mph - N/A   Clear
9:53 PM 55.4 °F 42.8 °F 63% 29.76 in 10.0 mi West 9.2 mph - N/A   Clear
10:13 PM 55.4 °F 42.8 °F 63% 29.77 in 10.0 mi WSW 10.4 mph - N/A   Clear
10:33 PM 55.4 °F 42.8 °F 63% 29.78 in 10.0 mi WSW 10.4 mph - N/A   Clear
10:53 PM 53.6 °F 42.8 °F 67% 29.79 in 10.0 mi WSW 8.1 mph - N/A   Clear
11:13 PM 53.6 °F 42.8 °F 67% 29.79 in 10.0 mi WSW 9.2 mph - N/A   Clear
11:33 PM 53.6 °F 41.0 °F 62% 29.79 in 10.0 mi West 10.4 mph - N/A   Clear
11:53 PM 53.6 °F 41.0 °F 62% 29.80 in 10.0 mi West 10.4 mph - N/A   Clear